TimeCST,TemperatureF,Dew PointF,Humidity,Sea Level PressureIn,VisibilityMPH,Wind Direction,Wind SpeedMPH,Gust SpeedMPH,PrecipitationIn,Events,Conditions,WindDirDegrees,DateUTC
12:00 AM,78,73,80,30.01,12,Calm,Calm,,,,Mostly Cloudy,,2012-11-03 06:00:00
3:00 AM,75,70,79,29.97,12,Calm,Calm,,,Rain,Light Rain Showers,,2012-11-03 09:00:00
5:00 AM,75.2,71.6,89,29.98,6.2,NNW,9.2,-,N/A,,Mostly Cloudy,340,2012-11-03 11:00:00
6:00 AM,74,72,91,30.01,12,North,4.6,,,,Mostly Cloudy,350,2012-11-03 12:00:00
6:00 AM,75.2,71.6,89,30.01,6.2,North,4.6,-,N/A,,Mostly Cloudy,350,2012-11-03 12:00:00
7:00 AM,75.2,71.6,89,30.01,6.2,NNW,4.6,-,N/A,,Mostly Cloudy,340,2012-11-03 13:00:00
8:00 AM,78.8,73.4,83,30.01,6.2,Calm,Calm,-,N/A,,Mostly Cloudy,0,2012-11-03 14:00:00
9:00 AM,82,74,70,30.04,12,NNE,5.8,,,,Partly Cloudy,20,2012-11-03 15:00:00
9:00 AM,82.4,73.4,74,30.03,6.2,NNE,5.8,-,N/A,,Scattered Clouds,20,2012-11-03 15:00:00
10:00 AM,84.2,73.4,70,30.03,6.2,ENE,10.4,-,N/A,,Scattered Clouds,70,2012-11-03 16:00:00
11:00 AM,84.2,69.8,62,30.01,6.2,ENE,12.7,-,N/A,,Scattered Clouds,60,2012-11-03 17:00:00
12:00 PM,85,71,55,30.00,12,ENE,11.5,,,,Mostly Cloudy,60,2012-11-03 18:00:00
12:00 PM,86.0,71.6,62,30.00,6.2,ENE,11.5,-,N/A,,Scattered Clouds,60,2012-11-03 18:00:00
1:00 PM,84.2,71.6,66,29.98,6.2,ENE,11.5,-,N/A,,Scattered Clouds,70,2012-11-03 19:00:00
2:00 PM,86.0,71.6,62,29.95,6.2,ENE,13.8,-,N/A,,Scattered Clouds,60,2012-11-03 20:00:00
3:00 PM,84,71,58,29.96,15,ENE,13.8,,,,Partly Cloudy,60,2012-11-03 21:00:00
3:00 PM,84.2,71.6,66,29.95,6.2,ENE,13.8,-,N/A,,Scattered Clouds,60,2012-11-03 21:00:00
4:00 PM,84.2,69.8,62,29.95,6.2,ENE,12.7,-,N/A,,Scattered Clouds,70,2012-11-03 22:00:00
5:00 PM,82.4,69.8,66,29.97,6.2,ENE,9.2,-,N/A,,Scattered Clouds,60,2012-11-03 23:00:00
6:00 PM,82,70,59,29.99,12,ENE,9.2,,,,Scattered Clouds,60,2012-11-04 00:00:00
6:00 PM,82.4,69.8,66,29.98,6.2,ENE,9.2,-,N/A,,Scattered Clouds,60,2012-11-04 00:00:00
9:00 PM,80,71,68,30.03,12,East,3.5,,,,Scattered Clouds,80,2012-11-04 03:00:00